Angleton, TX

9:59 PM CST on December 12, 2017 (GMT -0600)
Brazoria County

Weather History for KLBX - November, 2013

Change the Weather History Date:

Friday, November 29, 2013

  Actual Average Record
Temperature  
Mean Temperature 50 °F -  
Max Temperature 62 °F 66 °F 84 °F (2016)
Min Temperature 39 °F 49 °F 33 °F (2001)
Degree Days  
Heating Degree Days 14    
Moisture  
Dew Point 41 °F    
Average Humidity 75    
Maximum Humidity 96    
Minimum Humidity 50    
Precipitation  
Precipitation 0.00 in - - ()
Sea Level Pressure  
Sea Level Pressure 30.44 in    
Wind  
Wind Speed 6 mph (ENE)    
Max Wind Speed 13 mph    
Max Gust Speed 20 mph    
Visibility 10 miles    
Events      
Averages and records for this station are not official NWS values.
T = Trace of Precipitation, MM = Missing Value Source: NWS Daily Summary

Daily Weather History Graph

Daily Weather History Graph

Search for Another Location

Airport or City:

Trip Planner

Search our weather history database for the weather conditions in past years. The results will help you decide how hot, cold, wet, or windy it might be!

Date:

Astronomy

Nov. 29, 2013 Rise Set
Actual Time 6:56 AM CST 5:23 PM CST
Civil Twilight 6:31 AM CST 5:49 PM CST
Nautical Twilight 6:01 AM CST 6:18 PM CST
Astronomical Twilight 5:33 AM CST 6:47 PM CST
Moon 3:18 AM CST (11/29) 2:55 PM CST (11/29)
Length of Visible Light 11h 18m
Length of Day
10h 26m
Waning Crescent, 14% of the Moon is Illuminated
Nov 29
Waning Crescent
Dec 2
New
Dec 9
First Quarter
Dec 17
Full
Dec 25
Last Quarter

Hourly Weather History & Observations

Time (CST) Temp. Windchill Dew Point Humidity Pressure Visibility Wind Dir Wind Speed Gust Speed Precip Events Conditions
12:53 AM 45.0 °F 41.8 °F 42.1 °F 90% 30.44 in 10.0 mi NE 5.8 mph - N/A   Clear
1:53 AM 44.1 °F 39.5 °F 41.0 °F 89% 30.44 in 10.0 mi NE 8.1 mph - N/A   Clear
2:53 AM 43.0 °F 39.5 °F 39.9 °F 89% 30.43 in 10.0 mi NE 5.8 mph - N/A   Clear
3:53 AM 43.0 °F 39.5 °F 39.9 °F 89% 30.43 in 10.0 mi NE 5.8 mph - N/A   Clear
4:53 AM 41.0 °F 37.1 °F 39.0 °F 93% 30.44 in 10.0 mi NNE 5.8 mph - N/A   Clear
5:53 AM 39.9 °F 35.8 °F 37.0 °F 89% 30.45 in 10.0 mi NNE 5.8 mph - N/A   Clear
6:53 AM 41.0 °F 39.0 °F 37.0 °F 86% 30.48 in 10.0 mi NE 3.5 mph - N/A   Clear
7:53 AM 43.0 °F 40.3 °F 37.9 °F 82% 30.48 in 10.0 mi ENE 4.6 mph - N/A   Unknown
8:53 AM 48.9 °F - 42.1 °F 77% 30.49 in 10.0 mi ENE 8.1 mph - N/A   Clear
9:53 AM 54.0 °F - 45.0 °F 72% 30.50 in 10.0 mi East 10.4 mph - N/A   Clear
10:53 AM 57.0 °F - 39.9 °F 53% 30.49 in 10.0 mi East 12.7 mph 19.6 mph N/A   Clear
11:53 AM 60.1 °F - 43.0 °F 53% 30.47 in 10.0 mi Variable 6.9 mph - N/A   Clear
12:53 PM 61.0 °F - 43.0 °F 52% 30.45 in 10.0 mi East 5.8 mph - N/A   Scattered Clouds
1:53 PM 62.1 °F - 43.0 °F 50% 30.43 in 10.0 mi ENE 9.2 mph - N/A   Clear
2:53 PM 61.0 °F - 43.0 °F 52% 30.40 in 10.0 mi East 9.2 mph - N/A   Clear
3:53 PM 57.9 °F - 41.0 °F 53% 30.40 in 10.0 mi East 9.2 mph - N/A   Clear
4:53 PM 55.0 °F - 39.9 °F 57% 30.40 in 10.0 mi East 8.1 mph - N/A   Clear
5:53 PM 51.1 °F - 39.9 °F 66% 30.41 in 10.0 mi East 3.5 mph - N/A   Clear
6:53 PM 50.0 °F - 41.0 °F 71% 30.41 in 10.0 mi ENE 5.8 mph - N/A   Scattered Clouds
7:53 PM 48.9 °F - 42.1 °F 77% 30.40 in 10.0 mi East 6.9 mph - N/A   Clear
8:53 PM 48.0 °F - 42.1 °F 80% 30.44 in 10.0 mi West 5.8 mph - N/A   Clear
9:53 PM 45.0 °F 43.5 °F 42.1 °F 90% 30.42 in 10.0 mi NNE 3.5 mph - N/A   Clear
10:53 PM 43.0 °F - 41.0 °F 93% 30.41 in 10.0 mi Calm Calm - N/A   Clear
11:53 PM 41.0 °F - 39.9 °F 96% 30.40 in 10.0 mi Calm Calm - N/A   Clear